Regional Weather Roundup
Issued by NWS

Home | Current Version | Previous Version | Graphics & Text | Print | Product List | Glossary On
Versions: 1 2 3 4 5 6 7 8 9 10 11 12 13 14 15 16 17 18 19 20 21 22 23 24 25 26 27 28 29 30 31 32 33 34 35 36 37 38 39 40 41 42 43 44 45 46 47 48 49 50
000
ASUS45 KSLC 241610
RWRUT

UTAH REGIONAL WEATHER ROUNDUP
NATIONAL WEATHER SERVICE SALT LAKE CITY UT
1000 AM MDT MON JUL 24 2017

UTZ001>011-023>025-241700-

NORTHERN UTAH

CITY           SKY/WX    TMP DP  RH WIND       PRES   REMARKS
BRIGHAM CITY   MOSUNNY   78  52  39 W5        30.04S
DUGWAY         MOSUNNY   86  43  22 S6        30.03
HILL AFB       PTSUNNY   73  46  38 E14       30.07S
LOGAN          SUNNY     76  51  41 N9        30.05S
OGDEN          PTSUNNY   76  48  37 S8        30.03F
SALT LAKE CITY PTSUNNY   83  50  31 S6        30.02S
TOOELE VALLEY  PTSUNNY   82  50  32 NE6       30.04S
WENDOVER       SUNNY     84  46  26 E9        30.02S
HEBER CITY     PTSUNNY   68  46  45 CALM      30.15F
WEST JORDAN    PTSUNNY   82  57  42 S10       30.06S

$$

UTZ011>015-024>027-241700-

CENTRAL/NORTHEAST UTAH

CITY           SKY/WX    TMP DP  RH WIND       PRES   REMARKS
PROVO AIRPORT  MOSUNNY   82  52  35 S8        30.07F
MOAB/CANYONLAN SUNNY     85  53  33 SE9       30.07F
DELTA          MOSUNNY   81  43  26 SW7       30.08S
PRICE          SUNNY     80  47  31 SE10      30.19S
RICHFIELD      MOSUNNY   72  52  49 CALM      30.15F
ROOSEVELT      SUNNY     79  45  29 NE3       30.15F
VERNAL         SUNNY     82  44  26 CALM      30.13F

$$

UTZ013>016-019>022-027-241700-

SOUTHERN UTAH

CITY           SKY/WX    TMP DP  RH WIND       PRES   REMARKS
BRYCE CANYON   SUNNY     67  52  58 SE12      30.34R
CEDAR CITY     PTSUNNY   79  49  34 SW7       30.14F
MILFORD        CLOUDY    77  50  38 S14       30.10R
ST GEORGE      MOSUNNY   89  55  31 CALM      29.98F
HANKSVILLE     MOSUNNY   88  48  25 SE5       30.09S
KANAB          SUNNY     75  59  57 SE3       30.19S
BLANDING       PTSUNNY   71  56  58 CALM      30.31F

$$

REGIONAL REPORTS     COLORADO/ARIZONA

CITY           SKY/WX    TMP DP  RH WIND       PRES   REMARKS
CRAIG, CO      SUNNY     77  45  32 VRB5      30.22F
GRAND JUNCTION SUNNY     82  50  32 SE13      30.13S
RIFLE, CO      SUNNY     75  47  36 NW3       30.19F
MONTROSE, CO   PTSUNNY   76  51  41 N8        30.22S
CORTEZ, CO     SUNNY     75  57  53 MISG      30.24F
COLORADO CITY    N/A     77  59  53 CALM      30.16S
PAGE, AZ       CLOUDY    78  59  51 S9        30.12R
GRAND CANYON   CLOUDY    70  56  61 SE6       30.28F
KINGMAN, AZ    CLOUDY    80  63  55 E12       30.05S
FLAGSTAFF, AZ  RAIN      58  58 100 CALM      30.33S FOG

$$

REGIONAL REPORTS    NEVADA/IDAHO/WYOMING

CITY           SKY/WX    TMP DP  RH WIND       PRES   REMARKS
LAS VEGAS, NV  PTSUNNY   90  62  39 S6        29.91F HX  90
ELY, NY          N/A    N/A N/A N/A MISG      30.20F
ELKO, NV       MOSUNNY   80  43  26 CALM      30.09F
POCATELLO, ID  MOSUNNY   81  46  29 CALM      30.04F
BURLEY, ID     SUNNY     75  51  43 S3        29.99F
FORT BRIDGER,  PTSUNNY   70  40  32 CALM      30.28S
EVANSTON, WY   CLOUDY    67  45  45 SW8       30.26R
ROCK SPRINGS,  CLOUDY    71  39  31 CALM      30.23F
KEMMERER, WY     N/A     73  37  27 SW5       30.26F

$$



USA.gov is the U.S. government's official web portal to all federal, state and local government web resources and services.